Regional Weather Roundup
Issued by NWS

Home | Current Version | Previous Version | Graphics & Text | Print | Product List | Glossary On
Versions: 1 2 3 4 5 6 7 8 9 10 11 12 13 14 15 16 17 18 19 20 21 22 23 24 25 26 27 28 29 30 31 32 33 34 35 36 37 38 39 40 41 42 43 44 45 46 47 48 49 50
000
ASUS43 KTOP 232359
RWRKS

WEATHER ROUNDUP FOR KANSAS
NATIONAL WEATHER SERVICE GOODLAND KS
700 PM CDT SAT SEP 23 2017

NOTE:  "FAIR" INDICATES FEW OR NO CLOUDS BELOW 12,000 FEET WITH NO
SIGNIFICANT WEATHER AND/OR OBSTRUCTIONS TO VISIBILITY.

KSZ001>006-013>018-027>032-041>047-240100-
NORTHWEST KANSAS

CITY           SKY/WX    TMP DP  RH WIND       PRES   REMARKS
GOODLAND       TSTM      57  57 100 W9G18     29.91R FOG
6HR MIN TEMP:  56; 6HR MAX TEMP:  62; 6HR PCP:  0.23;

HAYS           CLOUDY    85  60  42 S24G31    29.83R
HILL CITY      CLOUDY    86  60  41 S12G25    29.84R
6HR MIN TEMP:  86; 6HR MAX TEMP:  93; 6HR PCP: TRACE;

RUSSELL        CLOUDY    86  58  38 S18G32    29.84R
6HR MIN TEMP:  86; 6HR MAX TEMP:  93;

$$

KSZ061>065-074>080-084>089-240100-
SOUTHWEST KANSAS

CITY           SKY/WX    TMP DP  RH WIND       PRES   REMARKS
DODGE CITY     PTCLDY    83  58  42 S25G32    29.87R
6HR MIN TEMP:  83; 6HR MAX TEMP:  91;

ELKHART          N/A     62  63 100 W8          N/A
GARDEN CITY    CLOUDY    81  59  47 S22G30    29.84R
6HR MIN TEMP:  81; 6HR MAX TEMP:  89;

GREAT BEND     CLOUDY    85  59  41 S18       29.86S
LIBERAL        PTCLDY    79  63  57 MISG        N/A
$$

KSZ066>073-081>083-090>101-240100-
SOUTHEAST KANSAS

CITY           SKY/WX    TMP DP  RH WIND       PRES   REMARKS
CHANUTE        CLEAR     82  66  58 SE6       29.94F
6HR MIN TEMP:  82; 6HR MAX TEMP:  89;

COFFEYVILLE    PTCLDY    85  67  54 SE6       29.92S
6HR MIN TEMP:  85; 6HR MAX TEMP:  91;

HUTCHINSON     PTCLDY    86  60  41 S17       29.88R
6HR MIN TEMP:  86; 6HR MAX TEMP:  92;

MEDICINE LODGE   N/A     85  58  39 S14       29.87R
NEWTON         CLEAR     84  60  44 S14       29.91F
PARSONS        MOCLDY    83  66  56 E3        29.94F
6HR MIN TEMP:  83; 6HR MAX TEMP:  91; 6HR PCP: TRACE;

WICHITA INTL   CLEAR     85  62  46 SE16      29.89S
6HR MIN TEMP:  85; 6HR MAX TEMP:  92;

WICHITA JABRA  CLEAR     84  62  47 SE17G23   29.90S
6HR MIN TEMP:  84; 6HR MAX TEMP:  89;

WINFIELD       CLEAR     84  63  49 SE12      29.92S
6HR MIN TEMP:  84; 6HR MAX TEMP:  91;

$$

KSZ007>012-019>026-033>040-048>060-102>105-240100-
NORTHEAST KANSAS

CITY           SKY/WX    TMP DP  RH WIND       PRES   REMARKS
CONCORDIA      CLEAR     84  60  44 S14       29.86F
6HR MIN TEMP:  84; 6HR MAX TEMP:  89;

EMPORIA        CLEAR     83  63  50 SE12      29.93S
6HR MIN TEMP:  83; 6HR MAX TEMP:  89;

LAWRENCE       CLEAR     83  68  60 SE9       29.94R
6HR MIN TEMP:  83; 6HR MAX TEMP:  91;

MANHATTAN      CLEAR     87  62  43 S10       29.89F
6HR MIN TEMP:  87; 6HR MAX TEMP:  94;

OLATHE IND     CLEAR     83  67  58 SE7       29.96S
6HR MIN TEMP:  83; 6HR MAX TEMP:  89;

OLATHE EXE     CLEAR     81  69  67 SE6       29.96S
6HR MIN TEMP:  81; 6HR MAX TEMP:  87;

SALINA         CLEAR     88  59  37 S17G26    29.87S
6HR MIN TEMP:  88; 6HR MAX TEMP:  95;

TOPEKA BILLARD CLEAR     84  67  56 SE8       29.93S
6HR MIN TEMP:  84; 6HR MAX TEMP:  91;

TOPEKA FORBES  CLEAR     85  66  53 SE9       29.94S
6HR MIN TEMP:  85; 6HR MAX TEMP:  91;

$$



USA.gov is the U.S. government's official web portal to all federal, state and local government web resources and services.